Date String (YYYY-MM-DD hh:mm:ss) UTC,Instrument flags,absolute air pressure of the measurement (hPa),sample flow rate (lpm),inlet stack bypass flow (lpm),air temperature of the measurement (°C),ambient temperature measured by the external sensor (°C),aerosol sample conditioner tube jacket temperature (°C),OPC LED temperature (°C),internal box temperature (°C),relative humidity of the measurement (%),span deviation,mass concentration of particles derived from Lorenz-Mie calculation of OPC scattering (μg/m³),mass concentration of particles derived from Lorenz-Mie calculation of OPC scattering (μg/m³),mass concentration of particles derived from Lorenz-Mie calculation of OPC scattering (μg/m³)
DateTimeUTC,F1_M11,P_M11,Q1_M11,Q2_M11,T1_M11,T2_M11,T3_M11,T4_M11,T5_M11,U1_M11,ZSPAN_M11,X0_M11,X2_M11,X1_M11
2023-12-21 15:00:00,SystemResetWarning,0832.0,5.00,000.00,023.5,022.6,000.0,031.8,024.9,14.0,0000.0,0008.64,0002.70,0002.11
2023-12-21 15:01:00,SystemResetWarning,0832.0,5.00,000.00,023.5,022.5,000.0,031.8,024.9,14.0,0000.0,0008.42,0002.70,0002.13
2023-12-21 15:02:00,SystemResetWarning,0832.0,5.00,000.00,023.5,022.5,000.0,031.8,024.9,14.0,0000.0,0008.41,0002.70,0002.14
2023-12-21 15:03:00,SystemResetWarning,0832.0,5.00,000.00,023.5,022.5,000.0,031.8,024.9,14.0,0000.0,0008.24,0002.66,0002.12
2023-12-21 15:04:00,SystemResetWarning,0832.0,5.00,000.00,023.5,022.5,000.0,031.8,024.9,13.9,0000.0,0007.46,0002.65,0002.11
2023-12-21 15:05:00,SystemResetWarning,0832.0,5.00,000.00,023.5,022.5,000.0,031.8,024.9,13.9,0000.0,0005.51,0002.68,0002.13
2023-12-21 15:06:00,SystemResetWarning,0832.1,5.00,000.00,023.5,022.5,000.0,031.8,024.9,13.9,0000.0,0005.50,0002.69,0002.11
2023-12-21 15:07:00,SystemResetWarning,0832.0,5.00,000.00,023.5,022.5,000.0,031.8,024.9,13.9,0000.0,0006.00,0002.62,0002.08
2023-12-21 15:08:00,SystemResetWarning,0832.0,5.00,000.00,023.5,022.5,000.0,031.8,024.9,13.8,0000.0,0005.79,0002.54,0002.04
2023-12-21 15:09:00,SystemResetWarning,0832.0,5.00,000.00,023.5,022.5,000.0,031.8,024.9,13.8,0000.0,0005.48,0002.48,0002.01
2023-12-21 15:10:00,SystemResetWarning,0832.1,5.00,000.00,023.5,022.5,000.0,031.8,024.9,13.8,0000.0,0005.28,0002.44,0001.97
2023-12-21 15:11:00,SystemResetWarning,0832.1,5.00,000.00,023.5,022.5,000.0,031.8,024.9,13.8,0000.0,0005.58,0002.46,0001.93
2023-12-21 15:12:00,SystemResetWarning,0832.2,4.98,000.00,023.5,022.5,000.0,031.8,024.9,13.8,0000.0,0006.56,0002.43,0001.89
2023-12-21 15:13:00,SystemResetWarning,0832.2,5.02,000.00,023.5,022.5,000.0,031.8,024.9,13.8,0000.0,0007.34,0002.38,0001.85
2023-12-21 15:14:00,SystemResetWarning,0832.2,4.99,000.00,023.5,022.5,000.0,031.8,024.9,13.8,0000.0,0007.79,0002.40,0001.83
2023-12-21 15:15:00,SystemResetWarning,0832.1,5.00,000.00,023.5,022.5,000.0,031.8,024.9,13.9,0000.0,0007.91,0002.41,0001.85
2023-12-21 15:16:00,SystemResetWarning,0832.2,4.99,000.00,023.5,022.5,000.0,031.8,024.9,13.9,0000.0,0008.04,0002.47,0001.91
2023-12-21 15:17:00,SystemResetWarning,0832.2,5.00,000.00,023.5,022.5,000.0,031.8,024.9,13.9,0000.0,0007.74,0002.55,0001.98
2023-12-21 15:18:00,SystemResetWarning,0832.2,5.00,000.00,023.5,022.5,000.0,031.8,024.9,13.9,0000.0,0007.21,0002.64,0002.04
2023-12-21 15:19:00,SystemResetWarning,0832.2,5.00,000.00,023.5,022.5,000.0,031.8,024.9,13.9,0000.0,0007.67,0002.77,0002.11
2023-12-21 15:20:00,SystemResetWarning,0832.2,5.00,000.00,023.5,022.5,000.0,031.8,024.9,13.8,0000.0,0007.85,0002.85,0002.16
2023-12-21 15:21:00,SystemResetWarning,0832.2,5.00,000.00,023.5,022.5,000.0,031.8,024.9,13.8,0000.0,0007.90,0002.91,0002.19
2023-12-21 15:22:00,SystemResetWarning,0832.2,5.00,000.00,023.5,022.5,000.0,031.8,024.9,13.8,0000.0,0007.81,0002.87,0002.20
2023-12-21 15:23:00,SystemResetWarning,0832.2,5.00,000.00,023.5,022.5,000.0,031.8,024.9,13.8,0000.0,0007.22,0002.84,0002.20
2023-12-21 15:24:00,SystemResetWarning,0832.2,5.00,000.00,023.5,022.5,000.0,031.8,024.9,13.8,0000.0,0006.27,0002.85,0002.21
2023-12-21 15:25:00,SystemResetWarning,0832.2,5.00,000.00,023.5,022.5,000.0,031.8,024.9,13.8,0000.0,0005.75,0002.85,0002.20
2023-12-21 15:26:00,SystemResetWarning,0832.3,5.00,000.00,023.5,022.5,000.0,031.8,024.9,13.8,0000.0,0005.30,0002.81,0002.18
2023-12-21 15:27:00,SystemResetWarning,0832.3,5.00,000.00,023.5,022.5,000.0,031.8,024.9,13.9,0000.0,0005.34,0002.74,0002.13
2023-12-21 15:28:00,SystemResetWarning,0832.3,5.00,000.00,023.5,022.5,000.0,031.8,024.9,13.9,0000.0,0005.08,0002.65,0002.09
2023-12-21 15:29:00,SystemResetWarning,0832.3,4.99,000.00,023.5,022.6,000.0,031.8,024.9,13.9,0000.0,0005.10,0002.62,0002.07
2023-12-21 15:30:00,SystemResetWarning,0832.3,4.99,000.00,023.5,022.6,000.0,031.8,024.9,13.9,0000.0,0004.56,0002.60,0002.06
2023-12-21 15:31:00,SystemResetWarning,0832.3,5.00,000.00,023.5,022.6,000.0,031.8,024.9,13.9,0000.0,0004.84,0002.58,0002.07
2023-12-21 15:32:00,SystemResetWarning,0832.3,5.00,000.00,023.5,022.6,000.0,031.8,024.9,13.8,0000.0,0004.91,0002.57,0002.08
2023-12-21 15:33:00,SystemResetWarning,0832.3,5.00,000.00,023.5,022.6,000.0,031.8,024.9,13.9,0000.0,0005.41,0002.58,0002.09
2023-12-21 15:34:00,SystemResetWarning,0832.3,5.01,000.00,023.5,022.6,000.0,031.8,024.9,14.0,0000.0,0006.52,0002.64,0002.14
2023-12-21 15:35:00,SystemResetWarning,0832.3,5.00,000.00,023.5,022.6,000.0,031.8,024.9,14.3,0000.0,0007.24,0002.70,0002.18
2023-12-21 15:36:00,SystemResetWarning,0832.3,5.00,000.00,023.5,022.6,000.0,031.8,024.9,14.2,0000.0,0007.66,0002.73,0002.22
2023-12-21 15:37:00,SystemResetWarning,0832.3,5.00,000.00,023.5,022.6,000.0,031.8,024.9,14.0,0000.0,0007.77,0002.80,0002.26
2023-12-21 15:38:00,SystemResetWarning,0832.3,4.99,000.00,023.5,022.6,000.0,031.8,024.9,13.9,0000.0,0007.72,0002.89,0002.30
2023-12-21 15:39:00,SystemResetWarning,0832.3,4.99,000.00,023.5,022.6,000.0,031.8,024.9,13.9,0000.0,0007.73,0002.92,0002.33
2023-12-21 15:40:00,SystemResetWarning,0832.3,5.00,000.00,023.5,022.7,000.0,031.8,024.9,13.9,0000.0,0007.64,0002.85,0002.32
2023-12-21 15:41:00,SystemResetWarning,0832.3,5.00,000.00,023.5,022.7,000.0,031.8,024.9,14.0,0000.0,0007.60,0002.81,0002.29
2023-12-21 15:42:00,SystemResetWarning,0832.3,5.00,000.00,023.5,022.7,000.0,031.8,025.0,14.0,0000.0,0007.35,0002.78,0002.27
2023-12-21 15:43:00,SystemResetWarning,0832.3,5.01,000.00,023.5,022.7,000.0,031.8,025.0,13.9,0000.0,0007.20,0002.78,0002.26
2023-12-21 15:44:00,SystemResetWarning,0832.3,5.00,000.00,023.5,022.7,000.0,031.8,024.9,13.9,0000.0,0007.58,0002.82,0002.29
2023-12-21 15:45:00,SystemResetWarning,0832.3,5.00,000.00,023.5,022.7,000.0,031.8,025.0,13.9,0000.0,0006.83,0002.83,0002.33
2023-12-21 15:46:00,SystemResetWarning,0832.3,4.98,000.00,023.5,022.7,000.0,031.8,025.0,13.9,0000.0,0006.17,0002.83,0002.34
2023-12-21 15:47:00,SystemResetWarning,0832.4,5.01,000.00,023.6,022.7,000.0,031.8,025.0,13.8,0000.0,0006.53,0002.85,0002.36
2023-12-21 15:48:00,SystemResetWarning,0832.4,5.01,000.00,023.6,022.7,000.0,031.8,025.0,13.8,0000.0,0006.35,0002.86,0002.39
2023-12-21 15:49:00,SystemResetWarning,0832.4,4.99,000.00,023.6,022.7,000.0,031.8,025.0,13.8,0000.0,0006.21,0002.86,0002.43
2023-12-21 15:50:00,SystemResetWarning,0832.5,4.99,000.00,023.6,022.8,000.0,031.8,025.0,13.8,0000.0,0006.22,0002.90,0002.48
2023-12-21 15:51:00,SystemResetWarning,0832.5,5.00,000.00,023.6,022.8,000.0,031.8,025.0,13.8,0000.0,0006.41,0002.95,0002.53
2023-12-21 15:52:00,SystemResetWarning,0832.5,5.00,000.00,023.6,022.8,000.0,031.8,025.0,13.8,0000.0,0007.01,0003.06,0002.60
2023-12-21 15:53:00,SystemResetWarning,0832.6,5.01,000.00,023.6,022.8,000.0,031.8,025.0,13.8,0000.0,0007.05,0003.11,0002.67
2023-12-21 15:54:00,SystemResetWarning,0832.5,5.01,000.00,023.6,022.8,000.0,031.9,025.0,13.8,0000.0,0007.13,0003.15,0002.73
2023-12-21 15:55:00,SystemResetWarning,0832.5,4.99,000.00,023.6,022.8,000.0,031.9,025.0,13.8,0000.0,0006.32,0003.17,0002.77
2023-12-21 15:56:00,SystemResetWarning,0832.6,4.99,000.00,023.6,022.8,000.0,031.9,025.0,13.8,0000.0,0006.73,0003.19,0002.78
2023-12-21 15:57:00,SystemResetWarning,0832.5,5.01,000.00,023.6,022.8,000.0,031.9,025.0,13.8,0000.0,0007.00,0003.20,0002.78
2023-12-21 15:58:00,SystemResetWarning,0832.6,5.00,000.00,023.6,022.8,000.0,031.9,025.0,13.8,0000.0,0006.10,0003.21,0002.78
2023-12-21 15:59:00,SystemResetWarning,0832.5,4.99,000.00,023.6,022.8,000.0,031.9,025.0,14.0,0000.0,0005.92,0003.20,0002.77
